Location: Newark
(46.8486°N, 30.0792°E)
Time: 06:05:00
(UTC+00:00)

ISS - Visible Passes

Search period start: 20 September 2019 00:00
Search period end: 30 September 2019 00:00
Orbit: 411 x 421 km, 51.6° (Epoch: 20 September)

Date Brightness Start Highest point End Pass type
(mag) Time Alt. Az. Time Alt. Az. Time Alt. Az.
20 Sep -3.4 17:50:39 10° SW 17:53:25 51° SSW 17:53:25 51° SSW visible
21 Sep -3.2 17:02:25 10° SSW 17:05:31 37° SE 17:07:19 20° E visible
21 Sep -1.3 18:38:57 10° W 18:40:14 21° W 18:40:14 21° W visible
22 Sep -3.6 17:50:21 10° WSW 17:53:39 68° NNW 17:53:57 62° NNE visible
23 Sep -3.9 17:01:49 10° WSW 17:05:08 85° SSE 17:07:32 17° ENE visible
23 Sep -1.2 18:38:59 10° WNW 18:40:26 22° WNW 18:40:26 22° WNW visible
24 Sep -2.8 17:50:17 10° W 17:53:28 42° NNW 17:53:54 39° N visible
25 Sep -3.1 17:01:36 10° W 17:04:52 52° NNW 17:07:18 16° NE visible
25 Sep -1.0 18:38:56 10° WNW 18:40:11 19° NW 18:40:11 19° NW visible
26 Sep -2.5 17:50:15 10° WNW 17:53:21 34° N 17:53:31 34° N visible
27 Sep -2.6 17:01:32 10° WNW 17:04:40 37° N 17:06:48 17° NE visible
27 Sep -0.8 18:38:41 10° WNW 18:39:41 17° NW 18:39:41 17° NW visible
28 Sep -2.8 16:12:48 10° W 16:16:00 43° NNW 16:19:12 10° ENE visible
28 Sep -2.5 17:50:04 10° WNW 17:52:55 35° N 17:52:55 35° N visible
29 Sep -2.6 17:01:24 10° WNW 17:04:29 34° N 17:06:09 21° NE visible
29 Sep -0.7 18:38:16 10° WNW 18:39:02 16° WNW 18:39:02 16° WNW visible
